Theta_e
311 311 320 326 328 329 328 329 328 327 330 330 330 328 327 329 330 329 330 331 331 330 327 325 323 320 316 317 316 318 318 321
311 312 312 321 327 327 327 327 325 324 325 323 323 323 325 325 326 329 329 330 328 328 325 324 324 320 317 316 316 316 318 321
309 310 311 318 323 326 326 327 324 326 326 325 325 323 322 324 324 323 327 331 329 327 324 323 322 321 318 316 316 316 318 319
309 310 312 317 321 325 325 327 325 327 326 324 320 318 317 317 319 322 321 323 326 328 325 324 322 320 318 317 317 318 315 319
309 310 313 318 322 325 326 327 325 325 324 321 320 319 316 316 320 320 323 323 326 325 325 323 321 320 317 316 317 318 318 316
308 310 312 318 322 324 326 326 325 324 322 322 319 317 318 320 320 320 322 323 324 326 325 323 320 319 318 316 315 318 318 317
309 311 314 319 323 324 325 324 323 322 320 320 317 317 319 317 316 318 319 320 321 324 325 324 320 320 319 317 317 315 316 317
308 308 315 320 321 323 324 323 320 320 320 317 317 320 319 316 317 318 317 317 318 322 323 323 320 322 320 318 315 314 316 317
311 309 316 319 321 323 322 321 320 319 319 316 319 320 319 319 318 318 318 316 317 321 324 321 320 319 319 317 316 315 315 316
313 312 312 319 321 322 322 320 320 319 317 316 319 319 319 318 318 318 318 318 318 319 319 319 318 317 317 316 315 314 315 315
313 314 311 318 321 322 322 319 318 318 317 316 319 319 319 319 319 318 318 317 317 317 318 316 315 316 316 316 314 314 313 314
314 315 316 318 320 321 319 318 317 316 316 316 319 318 318 317 318 318 318 317 317 316 316 317 315 315 316 315 314 315 314 313
314 314 316 316 317 317 316 317 316 317 317 317 318 318 317 316 316 316 318 318 315 317 316 315 315 315 317 317 314 314 314 313
305 311 312 313 314 314 315 315 316 317 318 317 317 317 316 316 315 315 316 317 318 317 317 314 313 314 315 316 315 315 314 313
299 301 303 306 312 314 315 315 316 317 317 316 316 317 316 316 316 315 314 315 316 316 317 317 318 316 314 314 314 314 315 316
296 296 298 300 302 305 308 314 318 318 316 316 316 317 317 316 316 316 315 314 315 316 316 316 317 317 316 316 314 313 313 314
294 294 294 297 298 300 301 302 311 317 317 316 317 316 316 315 315 317 315 315 314 314 314 314 315 314 302 300 310 316 315 315
291 292 292 292 296 298 297 298 299 299 300 301 303 306 308 310 315 315 314 315 315 314 314 314 314 315 298 298 298 315 316 316
289 289 290 291 295 296 296 295 295 294 294 294 296 298 299 300 302 302 303 307 314 313 313 313 313 301 291 294 295 307 310 311
Wind_Speed
13 11 14 16 17 17 17 15 16 14 10 9 7 6 5 5 6 7 10 9 11 8 5 7 8 7 8 8 10 6 7 10
13 13 10 13 15 17 19 19 16 13 9 8 5 5 5 4 3 9 9 8 11 10 6 8 9 9 12 11 10 12 7 8
16 13 10 14 16 19 20 21 19 15 10 9 6 6 3 4 4 4 5 11 10 12 11 10 10 8 12 13 12 11 8 11
18 14 14 13 17 21 22 23 20 16 14 9 6 6 3 3 4 5 5 5 5 10 12 12 12 11 10 14 14 16 10 11
18 16 13 17 18 16 19 20 20 17 16 13 15 10 7 5 7 6 7 8 9 5 11 11 12 10 11 12 12 12 13 14
20 20 19 15 15 18 18 20 20 17 16 16 11 10 8 7 7 9 9 8 10 10 8 13 12 9 12 14 12 14 11 12
18 19 12 12 15 17 19 20 17 17 16 15 14 15 12 8 7 7 6 6 6 11 11 12 10 11 13 13 14 12 10 11
13 13 13 14 18 20 19 21 19 17 17 14 16 14 12 11 10 8 6 4 4 10 9 12 10 12 12 11 12 12 12 13
15 11 13 16 18 20 19 20 19 18 16 14 14 13 8 8 9 6 6 5 4 5 8 7 11 12 13 12 11 12 12 11
17 13 13 14 18 19 19 18 16 16 15 12 14 13 11 9 10 8 6 6 5 5 6 6 8 12 12 12 9 11 11 10
14 11 9 12 13 14 16 14 14 14 14 11 12 12 11 10 10 10 8 7 7 7 8 8 8 7 8 9 7 10 10 8
11 9 6 9 11 13 12 12 13 14 13 12 13 12 11 10 9 10 10 7 8 8 8 10 11 11 9 10 10 12 13 13
10 8 7 8 9 11 11 11 12 12 11 12 11 11 11 11 10 11 11 11 8 9 9 8 9 10 11 12 9 10 14 14
16 13 7 7 9 9 10 9 11 12 12 11 10 10 10 11 10 11 12 12 12 11 11 9 8 9 10 10 11 10 11 11
15 17 16 13 7 9 10 10 10 10 10 11 11 10 10 10 9 10 11 12 13 13 13 13 14 13 11 10 10 10 10 11
16 16 16 14 15 15 12 7 8 9 9 9 8 8 7 8 9 10 10 11 11 12 12 12 12 12 11 14 13 12 12 13
17 16 17 16 15 13 14 15 11 5 5 4 3 6 6 7 7 9 8 10 11 11 12 13 13 11 13 15 15 15 16 17
15 15 16 15 14 15 16 16 15 16 13 13 11 11 9 7 4 7 8 10 9 11 11 11 13 13 13 17 18 15 14 15
12 12 14 16 15 14 15 16 14 14 15 14 13 11 10 10 10 9 9 7 5 8 9 10 11 7 16 9 15 15 12 13
Wind_Direction
268 256 237 224 210 196 189 185 182 185 179 176 181 180 179 204 191 182 185 181 180 167 138 147 135 121 129 136 138 149 158 161
266 259 247 220 205 190 188 180 181 176 171 168 169 179 179 190 189 196 183 169 175 170 143 156 149 146 148 148 145 154 155 157
258 243 242 216 206 199 187 184 178 182 176 179 176 162 175 176 188 186 186 196 185 179 162 165 166 153 151 155 160 164 155 167
246 242 230 218 208 200 189 183 173 176 171 159 126 107 96 153 197 201 189 208 204 189 174 170 169 164 167 169 172 175 165 178
249 243 236 213 213 198 190 179 172 170 169 169 175 177 178 193 199 199 199 195 209 206 178 174 166 170 169 178 178 183 162 177
249 245 238 222 195 189 184 173 173 170 172 175 178 184 184 182 192 197 201 195 204 204 184 173 170 177 176 172 179 190 187 179
258 251 240 205 183 182 178 170 168 173 172 170 178 187 177 171 186 191 197 196 200 211 184 178 177 172 179 176 182 189 185 188
323 258 208 194 183 182 178 168 168 173 177 172 185 189 174 174 182 191 177 185 205 200 187 179 171 181 181 179 179 184 191 190
316 300 220 203 184 183 178 173 168 173 174 172 186 181 175 178 180 193 170 190 190 184 198 172 171 181 180 180 184 189 195 188
313 301 230 204 187 188 180 168 169 169 167 167 183 177 173 174 165 194 180 170 167 168 153 169 172 178 183 184 188 190 187 171
330 297 225 190 188 178 174 163 168 163 159 163 180 175 172 172 168 183 186 169 155 157 168 156 157 164 170 175 176 187 185 178
357 24 95 148 163 167 153 159 163 157 155 161 174 170 168 170 178 183 187 168 163 167 165 171 174 178 168 176 185 185 193 196
9 45 93 135 145 139 143 151 155 149 148 157 176 165 166 171 182 182 185 189 176 184 180 177 173 177 186 187 175 191 200 203
9 28 58 105 116 127 136 140 146 141 145 155 161 169 174 183 186 185 186 189 193 191 189 182 182 183 189 191 191 184 189 198
16 31 27 28 62 120 124 134 136 145 149 154 163 176 186 195 195 191 191 194 194 197 199 200 197 194 193 195 200 206 213 217
31 30 28 24 42 45 46 62 136 152 157 161 163 175 181 186 200 202 198 198 203 205 203 209 211 211 210 205 200 202 208 218
30 36 33 25 30 42 44 40 37 113 128 122 129 176 181 187 200 210 206 211 214 212 212 210 210 214 201 198 210 214 216 225
25 24 32 22 32 40 49 45 41 46 44 42 40 39 53 20 230 198 210 224 223 222 226 225 229 228 203 204 209 228 231 232
32 23 28 26 29 44 56 55 42 50 40 32 30 27 39 34 39 37 33 4 249 225 224 220 233 49 12 279 220 220 229 237